Location: Chapel Hill
(35.9134°N, 79.0560°W)
Time: 12:40:29
(UTC-04:00)

Hubble Space Telescope - Visible Passes

Search period start: 14 July 2024 00:00
Search period end: 24 July 2024 00:00
Orbit: 510 x 513 km, 28.5° (Epoch: 14 July)

Date Brightness Start Highest point End Pass type
(mag) Time Alt. Az. Time Alt. Az. Time Alt. Az.
14 Jul 1.7 21:49:57 10° SW 21:53:20 27° S 21:54:17 24° SSE visible
15 Jul 1.8 21:30:31 10° WSW 21:33:56 27° S 21:35:59 18° SE visible
16 Jul 1.8 21:11:06 10° WSW 21:14:30 27° S 21:17:35 12° ESE visible
16 Jul 3.1 22:51:38 10° WSW 22:52:21 13° SW 22:52:21 13° SW visible
17 Jul 2.7 22:32:18 10° WSW 22:33:54 16° SW 22:33:54 16° SW visible
18 Jul 2.5 22:13:00 10° WSW 22:15:24 17° SSW 22:15:24 17° SSW visible
19 Jul 2.5 21:53:42 10° SW 21:56:12 16° SSW 21:56:54 15° S visible
20 Jul 2.8 21:34:26 10° SW 21:36:42 15° SSW 21:38:23 12° S visible
21 Jul 2.9 21:15:13 10° SW 21:17:11 13° SSW 21:19:10 10° S visible
22 Jul 3.0 20:56:05 10° SW 20:57:40 12° SSW 20:59:15 10° S visible
